Tracking 29967 objects as of 6-Dec-2024
HD Live streaming from Space Station
objects crossing your sky now

DELTA 4 R/B

Track DELTA 4 R/B now!


NORAD ID: 28546
Int'l Code: 2004-050B
Perigee: 18,905.6 km
Apogee: 36,561.5 km
Inclination: 16.6 °
Period: 1,044.7 minutes
Semi major axis: 34104 km
RCS: Unknown
Launch date: December 21, 2004
Source: United States (US)
Launch site: AIR FORCE EASTERN TEST RANGE (AFETR)

Note: This is a ROCKET BODY
Your satellite tracking list
Your tracking list is empty




NASA's NSSDC Master Catalog

Two Line Element Set (TLE):
1 28546U 04050B   24340.73467490 -.00000111  00000-0  00000+0 0  9990
2 28546  16.5925 333.9325 2588496 310.8795  34.6956  1.37842821100390
Source of the keplerian elements: McCants